Location: Ulm
(48.4292°N, 9.9866°E)
Time: 02:43:44
(UTC+01:00)

ISS - Visible Passes

Search period start: 08 December 2021 00:00
Search period end: 18 December 2021 00:00
Orbit: 417 x 422 km, 51.6° (Epoch: 07 December)

Date Brightness Start Highest point End Pass type
(mag) Time Alt. Az. Time Alt. Az. Time Alt. Az.
08 Dec -0.8 18:04:34 10° W 18:06:52 17° SW 18:09:09 10° S visible
09 Dec -1.3 17:16:47 10° W 17:19:38 25° SW 17:22:29 10° SSE visible
11 Dec -0.1 17:20:14 10° WSW 17:21:15 11° SW 17:22:15 10° SSW visible
